Location: Barnston
(51.8500°N, 0.4000°E)
Time: 19:14:47
(UTC+00:00)

RESURS DK-1 - Pass Details

Date: 26 September 2023
Orbit: 544 x 553 km, 69.9° (Epoch: 08 December)

Event Time Altitude Azimuth Distance (km) Brightness Sun altitude
Exits shadow 01:54:51 17° 66° (ENE) 1,438 5.0 -32.9°
Drops below altitude 10° 01:56:05 10° 53° (NE) 1,821 5.8 -32.8°
Enters shadow 02:55:32 -63° 214° (SW) 11,953 9.1 -26.2°
